| time (UTC) | temp F | wind direction | speed MPH | gust MPH | rain 1hr in | rain 24hr in | rain mn in | humidity % | barometer mb |
| 20260505014504 | 47 | 267 | 3.0 | 9.0 | 0.00 | 0.00 | 0.00 | 81 | 1007.6 |
| 20260505013003 | 47 | 262 | 3.0 | 8.0 | 0.00 | 0.00 | 0.00 | 81 | 1007.6 |
| 20260505011504 | 48 | 238 | 3.0 | 7.0 | 0.00 | 0.00 | 0.00 | 79 | 1007.6 |
| 20260505010005 | 48 | 258 | 2.0 | 7.0 | 0.00 | 0.00 | 0.00 | 78 | 1007.6 |
| 20260505004504 | 49 | 247 | 3.0 | 7.0 | 0.00 | 0.00 | 0.00 | 77 | 1007.6 |
| 20260505000004 | 49 | 225 | 3.0 | 8.0 | 0.00 | 0.00 | 0.00 | 74 | 1007.6 |
| 20260504231504 | 50 | 235 | 3.0 | 6.0 | 0.00 | 0.01 | 0.00 | 69 | 1007.6 |
| 20260504224504 | 51 | 251 | 2.0 | 7.0 | 0.00 | 0.02 | 0.00 | 68 | 1007.7 |
| 20260504223004 | 51 | 250 | 2.0 | 7.0 | 0.00 | 0.02 | 0.00 | 67 | 1007.9 |
| 20260504214504 | 52 | 256 | 2.0 | 5.0 | 0.00 | 0.02 | 0.03 | 65 | 1007.9 |
| 20260504213006 | 53 | 245 | 1.0 | 7.0 | 0.00 | 0.02 | 0.03 | 65 | 1007.9 |
| 20260504210005 | 53 | 241 | 2.0 | 7.0 | 0.00 | 0.02 | 0.03 | 67 | 1007.7 |
| 20260504204505 | 54 | 263 | 3.0 | 9.0 | 0.00 | 0.02 | 0.03 | 67 | 1007.6 |
| 20260504203005 | 54 | 249 | 3.0 | 8.0 | 0.00 | 0.02 | 0.03 | 66 | 1007.6 |
| 20260504200005 | 55 | 239 | 2.0 | 10.0 | 0.00 | 0.02 | 0.03 | 68 | 1007.4 |
| 20260504194505 | 55 | 246 | 2.0 | 8.0 | 0.00 | 0.02 | 0.03 | 68 | 1007.1 |
| 20260504193005 | 55 | 246 | 2.0 | 6.0 | 0.00 | 0.02 | 0.03 | 69 | 1007.1 |
| 20260504191505 | 56 | 225 | 1.0 | 8.0 | 0.00 | 0.02 | 0.03 | 68 | 1006.6 |
| 20260504190004 | 57 | 226 | 3.0 | 9.0 | 0.00 | 0.02 | 0.03 | 66 | 1006.6 |
| 20260504183005 | 58 | 257 | 3.0 | 10.0 | 0.00 | 0.02 | 0.03 | 64 | 1006.4 |
| 20260504180005 | 58 | 254 | 6.0 | 10.0 | 0.00 | 0.02 | 0.03 | 64 | 1006.0 |
| 20260504173005 | 60 | 250 | 5.0 | 10.0 | 0.00 | 0.02 | 0.03 | 59 | 1005.6 |
| 20260504081503 | 55 | 217 | 2.0 | 8.0 | 0.00 | 0.02 | 0.03 | 86 | 1004.5 |
| 20260504050005 | 48 | 6 | 6.0 | 12.0 | 0.00 | 0.02 | 0.03 | 91 | 1003.7 |
| 20260504041504 | 48 | 313 | 2.0 | 3.0 | 0.00 | 0.02 | 0.03 | 93 | 1003.1 |
| 20260504034504 | 48 | 59 | 0.0 | 5.0 | 0.00 | 0.02 | 0.03 | 93 | 1004.1 |
| 20260504030004 | 48 | 68 | 3.0 | 6.0 | 0.00 | 0.02 | 0.03 | 93 | 1004.1 |
| 20260504024503 | 48 | 32 | 3.0 | 5.0 | 0.00 | 0.02 | 0.03 | 93 | 1004.1 |
| 20260504023003 | 47 | 80 | 1.0 | 3.0 | 0.00 | 0.02 | 0.03 | 93 | 1004.8 |
| 20260504020003 | 48 | 90 | 1.0 | 3.0 | 0.00 | 0.02 | 0.03 | 92 | 1005.1 |